Orangeburg, SC

4:41 AM EDT on May 26, 2017 (GMT -0400)
Orangeburg Municipal

Weather History for KOGB - January, 2013

Change the Weather History Date:

Thursday, January 31, 2013

  Actual Average Record
Temperature  
Mean Temperature 48 °F 47 °F  
Max Temperature 55 °F 58 °F 79 °F (2002)
Min Temperature 41 °F 36 °F 9 °F (1966)
Degree Days  
Heating Degree Days 17 18  
Month to date heating degree days 371 596  
Since 1 July heating degree days 1185 1497  
Cooling Degree Days 0 0  
Month to date cooling degree days 20 1  
Year to date cooling degree days 20 1  
Moisture  
Dew Point 27 °F    
Average Humidity 47    
Maximum Humidity 83    
Minimum Humidity 24    
Precipitation  
Precipitation 0.01 in 0.16 in 0.89 in (1960)
Month to date precipitation 0.84 3.98  
Year to date precipitation 0.84 3.98  
Sea Level Pressure  
Sea Level Pressure 29.99 in    
Wind  
Wind Speed 15 mph (West)    
Max Wind Speed 31 mph    
Max Gust Speed 41 mph    
Visibility 10 miles    
Events      
T = Trace of Precipitation, MM = Missing Value Source: NWS Daily Summary

Daily Weather History Graph

Daily Weather History Graph

Search for Another Location

Airport or City:

Trip Planner

Search our weather history database for the weather conditions in past years. The results will help you decide how hot, cold, wet, or windy it might be!

Date:

Astronomy

Jan. 31, 2013 Rise Set
Actual Time 7:20 AM EST 5:54 PM EST
Civil Twilight 6:53 AM EST 6:20 PM EST
Nautical Twilight 6:24 AM EST 6:50 PM EST
Astronomical Twilight 5:54 AM EST 7:19 PM EST
Moon 10:36 PM EST (1/31) 9:35 AM EST (1/31)
Length of Visible Light 11h 26m
Length of Day
10h 34m
Waning Gibbous, 80% of the Moon is Illuminated
Jan 31
Waning Gibbous
Feb 3
Last Quarter
Feb 10
New
Feb 17
First Quarter
Feb 25
Full

Hourly Weather History & Observations

Time (EST) Temp. Windchill Dew Point Humidity Pressure Visibility Wind Dir Wind Speed Gust Speed Precip Events Conditions
12:53 AM 52.0 °F - 48.0 °F 86% 29.71 in 10.0 mi WSW 12.7 mph - 0.01 in   Overcast
1:53 AM 53.1 °F - 46.9 °F 80% 29.74 in 10.0 mi WSW 17.3 mph 23.0 mph N/A   Overcast
2:53 AM 53.1 °F - 46.9 °F 80% 29.75 in 10.0 mi WSW 13.8 mph 24.2 mph N/A   Overcast
3:53 AM 50.0 °F - 36.0 °F 59% 29.81 in 10.0 mi West 21.9 mph 36.8 mph N/A   Scattered Clouds
4:53 AM 46.9 °F - 32.0 °F 56% 29.85 in 10.0 mi West 18.4 mph 28.8 mph N/A   Clear
5:53 AM 45.0 °F 36.4 °F 30.0 °F 56% 29.88 in 10.0 mi West 23.0 mph 33.4 mph N/A   Clear
6:53 AM 43.0 °F 34.8 °F 28.0 °F 56% 29.93 in 10.0 mi West 18.4 mph 26.5 mph N/A   Clear
7:53 AM 42.1 °F 33.6 °F 26.1 °F 53% 29.96 in 10.0 mi West 18.4 mph 27.6 mph N/A   Clear
8:53 AM 43.0 °F 34.8 °F 25.0 °F 49% 30.01 in 10.0 mi West 18.4 mph 27.6 mph N/A   Clear
9:53 AM 46.0 °F 38.8 °F 26.1 °F 46% 30.01 in 10.0 mi West 18.4 mph 28.8 mph N/A   Clear
10:53 AM 48.0 °F - 25.0 °F 41% 30.03 in 10.0 mi West 11.5 mph 24.2 mph N/A   Clear
11:53 AM 51.1 °F - 23.0 °F 33% 30.02 in 10.0 mi WNW 15.0 mph 24.2 mph N/A   Clear
12:53 PM 53.1 °F - 21.9 °F 30% 30.01 in 10.0 mi West 19.6 mph 25.3 mph N/A   Clear
1:53 PM 53.1 °F - 18.0 °F 25% 30.01 in 10.0 mi WNW 23.0 mph 34.5 mph N/A   Clear
2:53 PM 55.0 °F - 19.9 °F 25% 30.01 in 10.0 mi West 19.6 mph 27.6 mph N/A   Clear
3:53 PM 55.0 °F - 19.0 °F 24% 30.02 in 10.0 mi West 21.9 mph 28.8 mph N/A   Clear
4:53 PM 54.0 °F - 19.9 °F 26% 30.04 in 10.0 mi West 15.0 mph 27.6 mph N/A   Clear
5:53 PM 51.1 °F - 21.0 °F 31% 30.06 in 10.0 mi West 8.1 mph - N/A   Clear
6:53 PM 46.9 °F - 23.0 °F 39% 30.10 in 10.0 mi West 6.9 mph - N/A   Clear
7:53 PM 46.0 °F 41.9 °F 23.0 °F 40% 30.11 in 10.0 mi West 8.1 mph - N/A   Clear
8:53 PM 44.1 °F 40.1 °F 24.1 °F 45% 30.14 in 10.0 mi WSW 6.9 mph - N/A   Clear
9:53 PM 43.0 °F 38.8 °F 25.0 °F 49% 30.15 in 10.0 mi WSW 6.9 mph - N/A   Clear
10:53 PM 42.1 °F 37.1 °F 25.0 °F 51% 30.17 in 10.0 mi WSW 8.1 mph - N/A   Clear
11:53 PM 42.1 °F 37.1 °F 25.0 °F 51% 30.18 in 10.0 mi West 8.1 mph - N/A   Clear